Location: Brno
(49.2000°N, 16.6330°E)
Time: 01:20:50
(UTC+02:00)

Transit 4A - Pass Details

Date: 31 July 2021
Orbit: 870 x 974 km, 66.8° (Epoch: 26 September)

Event Time Altitude Azimuth Distance (km) Brightness Sun altitude
Rises 07:33:39 0° 323° (NW) 3,468 10.6 19.1°
Reaches altitude 10° 07:36:36 10° 337° (NNW) 2,531 10.1 19.6°
Maximum altitude 07:41:22 25° 32° (NNE) 1,701 10.0 20.4°
Drops below altitude 10° 07:46:11 10° 87° (E) 2,556 12.5 21.2°
Sets 07:49:09 0° 100° (E) 3,509 12.3 21.6°
